Location: downtown San Diego
(32.7310°N, 117.1990°W)
Time: 03:09:56
(UTC-07:00)

Daily predictions for brighter satellites

Satellite Brightness Start Highest point End
(mag) Time Altitude Azimuth Time Altitude Azimuth Time Altitude Azimuth
Cosmos 2322 Rocket 4.1 00:02:32 10° NNW 00:04:53 25° N 00:04:53 25° N
Cosmos 2360 Rocket 4.3 00:18:12 10° N 00:20:21 23° N 00:20:21 23° N
Cosmos 2333 Rocket 4.5 00:33:47 10° N 00:36:03 19° NNE 00:36:03 19° NNE
Cosmos 2219 Rocket 4.3 01:37:49 10° NNW 01:39:37 21° NNW 01:39:37 21° NNW
USA 215 4.2 01:56:45 10° NE 02:00:49 40° ENE 02:00:49 40° ENE
CZ-2D R/B 3.9 02:01:59 10° NNE 02:04:39 28° NE 02:04:39 28° NE
Cosmos 2297 Rocket 3.8 02:14:38 31° NNE 02:14:38 31° NNE 02:17:29 10° NNE
SL-16 R/B 3.5 02:14:06 44° NE 02:14:06 44° NE 02:18:53 10° N
ADEOS II 4.3 02:09:48 10° NE 02:12:06 19° ENE 02:12:06 19° ENE
SJ 16-02 4.0 02:30:09 18° NE 02:30:09 18° NE 02:31:22 10° NNE
Cosmos 2237 Rocket 3.7 02:25:42 10° NNW 02:28:39 31° N 02:28:39 31° N
USA 229 DEB 3.9 02:58:21 57° E 02:58:21 57° E 03:04:22 10° NE
USA 229 3.9 02:58:27 56° E 02:58:27 56° E 03:04:25 10° NE
Cosmos 2227 Rocket 3.6 03:02:41 30° NNW 03:02:41 30° NNW 03:06:14 10° N
Resurs 1-4 Rocket 3.7 03:02:00 10° N 03:04:46 26° NNW 03:04:46 26° NNW
ATLAS 3B CENTAUR R/B 3.5 03:07:05 59° SW 03:09:01 68° S 03:15:53 10° E
NOSS 3-1 (A) 4.0 03:09:54 43° E 03:09:54 43° E 03:14:45 10° NE
Cosmos 1937 Rocket 3.6 03:27:52 72° NE 03:27:52 72° NE 03:32:41 10° NNE
Cosmos 1898 Rocket 3.9 03:33:09 53° NNW 03:33:09 53° NNW 03:37:28 10° N
Cosmos 1470 4.4 03:38:30 29° N 03:38:30 29° N 03:40:35 10° N
ARIANE 5 R/B 2.4 03:34:23 10° NNE 03:39:38 86° ESE 03:39:42 86° SE
SL-16 R/B 2.1 03:34:30 10° NNW 03:40:14 87° ENE 03:41:06 65° SSE
Meteor 1-24 Rocket 3.9 03:35:15 10° NNW 03:39:35 52° NW 03:39:35 52° NW
Atlas Centaur 2 4.0 03:40:12 25° SSE 03:41:05 25° SSE 03:47:24 10° E
Okean 1-7 Rocket 4.2 03:38:45 10° N 03:42:02 50° N 03:42:02 50° N
Cosmos 2292 Rocket 4.4 03:36:16 10° N 03:43:42 77° W 03:44:38 64° SSW
Cosmos 1680 Rocket 3.3 03:38:39 10° NNW 03:43:53 89° E 03:43:58 87° SSE
IDEFIX/ARIANE 42P 2.9 03:39:44 10° NNE 03:44:52 60° E 03:45:55 49° SSE
USA 215 4.4 03:40:17 10° NNE 03:45:53 32° NW 03:48:09 25° WNW
OAO 3 Rocket 3.5 03:46:46 60° ESE 03:46:46 60° ESE 03:51:07 10° ENE
CZ-2D R/B 4.1 03:43:40 10° NNW 03:45:58 16° NW 03:45:58 16° NW
Cosmos 372 Rocket 4.4 03:48:07 47° SE 03:49:10 56° ESE 03:54:17 10° NNE
Cosmos 2263 Rocket 2.1 03:52:29 58° S 03:53:33 77° ESE 03:59:07 10° NNE
ADEOS II 3.0 03:48:53 10° N 03:53:03 33° WNW 03:53:03 33° WNW
Meteor 2-10 4.0 03:54:32 58° S 03:55:40 84° E 04:01:15 10° N
SL-16 R/B 4.3 03:59:12 16° WNW 03:59:12 16° WNW 04:01:13 10° NW
ERS-1 4.5 03:53:08 10° N 03:58:01 59° WNW 03:58:01 59° WNW
SL-08 R/B 3.2 03:58:49 70° SSW 03:59:15 76° WSW 04:04:13 10° NNW
Timation 1 Rocket 4.4 03:58:37 52° W 03:59:27 56° WNW 04:05:19 10° NNE
CZ-2C R/B 4.2 04:02:07 10° NE 04:05:53 25° E 04:09:42 10° SSE
SJ 16-02 3.7 04:07:09 12° NW 04:07:09 12° NW 04:08:01 10° NW
NOSS 2-3 (E) 3.9 04:07:42 47° NW 04:07:42 47° NW 04:12:04 10° NNE
Cosmos 1607 3.9 04:04:07 10° NNW 04:10:32 70° WSW 04:16:55 10° SSE
USA 267 4.4 04:07:34 10° ESE 04:13:40 44° NE 04:19:47 10° NNW
NOSS 3-1 (C) 4.3 04:14:24 26° WNW 04:15:38 28° NW 04:20:46 10° N
Cosmos 158 Rocket 4.5 04:14:04 10° NNW 04:18:56 40° W 04:18:56 40° W
Cosmos 2098 Rocket 4.3 04:15:32 10° NNW 04:20:31 40° W 04:21:34 37° WSW
Cosmos 2298 Rocket 4.0 04:19:47 34° SSW 04:22:10 85° ESE 04:27:30 10° NNE
PSLV R/B 4.5 04:18:41 10° NNE 04:22:53 46° E 04:26:02 17° SSE
Landsat 5 4.0 04:20:05 10° SSE 04:23:49 53° ENE 04:27:40 10° N
Cosmos 1626 Rocket 3.4 04:19:33 10° NNW 04:23:50 68° W 04:25:05 44° SSW
BREEZE-M DEB (TANK) 3.5 04:22:50 44° WSW 04:24:05 72° NW 04:35:33 10° NE
ERS-2 3.2 04:21:55 10° SSE 04:25:23 45° ENE 04:28:52 10° N
CZ-2C R/B 2.7 04:22:52 10° N 04:26:40 62° WNW 04:27:07 56° WSW
ATLAS CENTAUR R/B 2.3 04:27:27 24° S 04:29:35 44° ESE 04:33:30 10° NE
Cosmos 1726 3.3 04:31:13 28° WNW 04:31:13 28° WNW 04:33:51 10° NNW
Meteor 2-21 Rocket 4.3 04:26:44 10° N 04:32:48 87° W 04:38:53 10° S
Cosmos 1953 3.0 04:33:37 34° W 04:33:37 34° W 04:37:18 10° NNW
CZ-2D R/B 4.4 04:30:58 10° NNW 04:34:24 28° WNW 04:34:26 28° WNW
S3M 4.5 04:29:32 10° S 04:35:47 63° E 04:42:06 10° NNE
Cosmos 1908 3.1 04:34:22 36° SSW 04:35:54 80° W 04:39:49 10° N
Cosmos 2228 3.4 04:33:45 15° S 04:37:17 64° E 04:41:38 10° NNE
SL-4 R/B 2.6 04:35:51 10° NW 04:39:09 46° NE 04:42:28 10° ESE
Cosmos 1758 Rocket 4.0 04:37:45 10° N 04:42:02 62° E 04:46:18 10° SSE
SeaSat 1 2.7 04:39:18 10° NNE 04:44:05 53° WNW 04:46:38 26° SW
SL-23 DEB 3.7 04:39:18 10° NW 04:44:10 64° SW 04:47:27 10° SE
CZ-4C R/B 2.6 04:43:15 33° S 04:44:28 63° WSW 04:47:40 10° NNW
PAYLOAD A 4.1 04:39:35 10° NNE 04:44:56 86° ESE 04:49:41 12° SSW
Nadezhda 2 Rocket 4.4 04:39:05 10° NNW 04:45:11 63° W 04:51:12 10° S
CZ-4B R/B 4.0 04:42:40 10° SE 04:45:21 23° ENE 04:47:59 10° NNE
Cosmos 1943 3.6 04:41:04 10° NNW 04:46:40 67° ENE 04:52:14 10° SSE
MSX 4.2 04:46:26 10° N 04:51:55 46° WNW 04:55:43 19° SW
H-2A R/B 2.0 04:47:56 10° S 04:52:00 55° W 04:56:02 10° NNW
Meteor 1-21 Rocket 4.4 04:49:15 10° NNW 04:54:32 48° W 04:59:48 10° SSW
Cosmos 1328 3.7 04:56:57 10° N 05:00:56 84° W 05:04:55 10° S
Cosmos 1825 Rocket 3.5 05:00:07 10° N 05:04:27 89° W 05:08:46 10° S
Cosmos 1703 3.5 05:06:51 10° NNW 05:10:40 48° W 05:14:29 10° SSW
Cosmos 1953 Rocket 4.0 05:06:18 10° N 05:10:47 68° E 05:15:11 10° SSE
OAO 2 Rocket 4.1 05:07:48 15° SW 05:11:48 44° SSE 05:16:42 10° E
Delta 2 Rocket 3.2 05:12:20 16° W 05:15:14 77° NNW 05:19:28 10° ENE
Cosmos 724 4.4 05:09:34 10° NW 05:15:31 60° WSW 05:21:33 10° SSE
Cosmos 1300 2.6 05:12:32 10° S 05:16:21 84° W 05:20:10 10° N
Cosmos 1844 4.3 05:11:18 10° S 05:16:59 61° ESE 05:22:41 10° NNE
SAR-Lupe-1 4.2 05:17:53 10° SSE 05:21:28 81° ENE 05:25:03 10° N
FENGYUN 3A 4.2 05:17:49 10° NNE 05:23:11 63° E 05:28:29 10° S
IDEFIX/ARIANE 42P 4.4 05:21:22 10° NW 05:23:53 14° WNW 05:26:25 10° W
Cosmos 1606 Rocket 4.4 05:20:57 10° SW 05:24:58 33° W 05:29:01 10° NNW
ERBS 4.1 05:26:08 12° WSW 05:26:08 12° WSW 05:27:19 10° SW
ADEOS 3.6 05:22:13 10° N 05:27:24 65° WNW 05:32:32 10° SSW
Meteor 1-31 Rocket 2.9 05:25:13 10° NNE 05:29:05 76° ESE 05:32:53 10° S
Cosmos 1689 Rocket 3.9 05:26:49 10° SE 05:29:31 35° ENE 05:32:13 10° N
OAO 3 Rocket 3.5 05:24:52 10° W 05:29:49 69° N 05:34:43 10° ENE
Atlas Centaur 2 3.4 05:22:48 11° WSW 05:30:03 56° SSE 05:38:22 10° E
ATLAS 3B CENTAUR R/B 2.8 05:22:43 10° W 05:30:52 40° SSW 05:34:47 10° SE
Cosmos 1484 Rocket 2.6 05:29:53 10° N 05:33:36 85° W 05:37:17 10° SSW
Delta 142 4.4 05:31:15 10° WSW 05:34:57 31° SSW 05:39:07 10° SE
Cosmos 2263 Rocket 4.1 05:35:45 10° W 05:38:03 12° NW 05:40:20 10° NNW
CZ-2C R/B 3.5 05:40:19 10° NNW 05:43:59 24° WNW 05:47:42 10° SW
Hubble Space Telescope 2.7 05:41:45 10° SSW 05:44:50 20° SSE 05:47:53 10° ESE
